contact:dominique.lefevre@mio.osupytheas.fr, maurice.libes@osupytheas.fr, didier.mallarino@osupytheas.fr
Project:EMSO http://www.emso-fr.org/EMSO-France
Depth: 2436.0 m
Title:EMSO Ligure Ouest : Data MII capteur MICROCAT
DateTime_Computer,Latitude,Longitude,Temperature,Conductivity,Pressure,DateTime_Instrument
DateTime_Computer,Latitude,Longitude,degC,S m-1,dbar,DateTime_Instrument
2019-09-27T00:02:26Z,42.805,6.029,13.2986,4.60045,2469.821,2019-9-27T02:02:50Z
2019-09-27T00:05:29Z,42.805,6.029,13.2995,4.60036,2469.844,2019-9-27T02:05:53Z
2019-09-27T00:08:33Z,42.805,6.029,13.2989,4.60031,2469.844,2019-9-27T02:08:57Z
2019-09-27T00:11:36Z,42.805,6.029,13.2983,4.60028,2469.821,2019-9-27T02:12:00Z
2019-09-27T00:14:39Z,42.805,6.029,13.2976,4.60031,2469.821,2019-9-27T02:15:03Z
2019-09-27T00:17:42Z,42.805,6.029,13.2984,4.60044,2469.806,2019-9-27T02:18:06Z
2019-09-27T00:20:46Z,42.805,6.029,13.3002,4.60031,2469.821,2019-9-27T02:21:10Z
2019-09-27T00:23:49Z,42.805,6.029,13.2994,4.60029,2469.821,2019-9-27T02:24:13Z
2019-09-27T00:26:52Z,42.805,6.029,13.3017,4.60028,2469.821,2019-9-27T02:27:16Z
2019-09-27T00:29:55Z,42.805,6.029,13.2993,4.60031,2469.797,2019-9-27T02:30:19Z
2019-09-27T00:32:58Z,42.805,6.029,13.2974,4.60024,2469.783,2019-9-27T02:33:22Z
2019-09-27T00:36:02Z,42.805,6.029,13.2996,4.60029,2469.821,2019-9-27T02:36:26Z
2019-09-27T00:39:05Z,42.805,6.029,13.2986,4.60022,2469.806,2019-9-27T02:39:29Z
2019-09-27T00:42:08Z,42.805,6.029,13.2998,4.60029,2469.821,2019-9-27T02:42:32Z
2019-09-27T00:45:11Z,42.805,6.029,13.2994,4.60056,2469.783,2019-9-27T02:45:35Z
2019-09-27T00:48:15Z,42.805,6.029,13.2982,4.60042,2469.821,2019-9-27T02:48:39Z
2019-09-27T00:51:18Z,42.805,6.029,13.2988,4.60062,2469.83,2019-9-27T02:51:42Z
2019-09-27T00:54:21Z,42.805,6.029,13.2993,4.60043,2469.821,2019-9-27T02:54:45Z
2019-09-27T00:57:24Z,42.805,6.029,13.2990,4.60037,2469.806,2019-9-27T02:57:48Z
2019-09-27T01:00:28Z,42.805,6.029,13.2978,4.60039,2469.783,2019-9-27T03:00:51Z
2019-09-27T01:03:31Z,42.805,6.029,13.2977,4.60024,2469.821,2019-9-27T03:03:55Z
2019-09-27T01:06:34Z,42.805,6.029,13.2981,4.60021,2469.83,2019-9-27T03:06:58Z
2019-09-27T01:09:37Z,42.805,6.029,13.2981,4.60032,2469.83,2019-9-27T03:10:01Z
2019-09-27T01:12:40Z,42.805,6.029,13.2974,4.60020,2469.783,2019-9-27T03:13:04Z
2019-09-27T01:15:44Z,42.805,6.029,13.2974,4.60003,2469.806,2019-9-27T03:16:08Z
2019-09-27T01:18:47Z,42.805,6.029,13.2982,4.60026,2469.783,2019-9-27T03:19:11Z
2019-09-27T01:21:50Z,42.805,6.029,13.2986,4.60030,2469.83,2019-9-27T03:22:14Z
2019-09-27T01:24:53Z,42.805,6.029,13.2982,4.60022,2469.806,2019-9-27T03:25:17Z
2019-09-27T01:27:56Z,42.805,6.029,13.3004,4.60036,2469.821,2019-9-27T03:28:20Z
2019-09-27T01:31:00Z,42.805,6.029,13.2992,4.60032,2469.783,2019-9-27T03:31:24Z
2019-09-27T01:34:03Z,42.805,6.029,13.2978,4.60062,2469.844,2019-9-27T03:34:27Z
2019-09-27T01:37:06Z,42.805,6.029,13.2994,4.60046,2469.821,2019-9-27T03:37:30Z
2019-09-27T01:40:09Z,42.805,6.029,13.2982,4.60031,2469.821,2019-9-27T03:40:33Z
2019-09-27T01:43:12Z,42.805,6.029,13.2982,4.60043,2469.821,2019-9-27T03:43:36Z
2019-09-27T01:46:16Z,42.805,6.029,13.2999,4.60047,2469.806,2019-9-27T03:46:40Z
2019-09-27T01:49:19Z,42.805,6.029,13.2991,4.60044,2469.844,2019-9-27T03:49:43Z
2019-09-27T01:52:22Z,42.805,6.029,13.3010,4.60033,2469.83,2019-9-27T03:52:46Z
2019-09-27T01:55:25Z,42.805,6.029,13.2996,4.60062,2469.821,2019-9-27T03:55:49Z
2019-09-27T01:58:29Z,42.805,6.029,13.2988,4.60050,2469.83,2019-9-27T03:58:53Z
2019-09-27T02:01:32Z,42.805,6.029,13.3003,4.60043,2469.844,2019-9-27T04:01:56Z
2019-09-27T02:04:35Z,42.805,6.029,13.2990,4.60077,2469.844,2019-9-27T04:04:59Z
2019-09-27T02:07:38Z,42.805,6.029,13.2993,4.60052,2469.83,2019-9-27T04:08:02Z
2019-09-27T02:10:41Z,42.805,6.029,13.2998,4.60043,2469.844,2019-9-27T04:11:05Z
2019-09-27T02:13:44Z,42.805,6.029,13.2994,4.60051,2469.83,2019-9-27T04:14:08Z
2019-09-27T02:16:48Z,42.805,6.029,13.2997,4.60028,2469.806,2019-9-27T04:17:12Z
2019-09-27T02:19:51Z,42.805,6.029,13.2994,4.60051,2469.876,2019-9-27T04:20:15Z
2019-09-27T02:22:54Z,42.805,6.029,13.2996,4.60077,2469.83,2019-9-27T04:23:18Z
2019-09-27T02:25:57Z,42.805,6.029,13.2989,4.60020,2469.867,2019-9-27T04:26:21Z
2019-09-27T02:29:00Z,42.805,6.029,13.3008,4.60042,2469.867,2019-9-27T04:29:24Z
2019-09-27T02:32:04Z,42.805,6.029,13.3005,4.60036,2469.83,2019-9-27T04:32:28Z
2019-09-27T02:35:07Z,42.805,6.029,13.3008,4.60032,2469.853,2019-9-27T04:35:31Z
2019-09-27T02:38:10Z,42.805,6.029,13.3011,4.60055,2469.867,2019-9-27T04:38:34Z
2019-09-27T02:41:13Z,42.805,6.029,13.3021,4.60050,2469.853,2019-9-27T04:41:37Z
2019-09-27T02:44:17Z,42.805,6.029,13.3008,4.60058,2469.867,2019-9-27T04:44:40Z
2019-09-27T02:47:20Z,42.805,6.029,13.3009,4.60030,2469.867,2019-9-27T04:47:44Z
2019-09-27T02:50:23Z,42.805,6.029,13.3043,4.60049,2469.876,2019-9-27T04:50:47Z
2019-09-27T02:53:26Z,42.805,6.029,13.3021,4.60026,2469.876,2019-9-27T04:53:50Z
2019-09-27T02:56:29Z,42.805,6.029,13.3013,4.60057,2469.876,2019-9-27T04:56:53Z
2019-09-27T02:59:32Z,42.805,6.029,13.3025,4.60022,2469.914,2019-9-27T04:59:56Z
2019-09-27T03:02:36Z,42.805,6.029,13.3028,4.60118,2469.876,2019-9-27T05:03:00Z
2019-09-27T03:05:39Z,42.805,6.029,13.3021,4.60036,2469.853,2019-9-27T05:06:03Z
2019-09-27T03:08:42Z,42.805,6.029,13.3004,4.60017,2469.867,2019-9-27T05:09:06Z
2019-09-27T03:11:45Z,42.805,6.029,13.3012,4.60028,2469.9,2019-9-27T05:12:09Z
2019-09-27T03:14:49Z,42.805,6.029,13.3014,4.60030,2469.876,2019-9-27T05:15:12Z
2019-09-27T03:17:52Z,42.805,6.029,13.3015,4.60031,2469.89,2019-9-27T05:18:16Z
2019-09-27T03:20:55Z,42.805,6.029,13.3022,4.60034,2469.89,2019-9-27T05:21:19Z
2019-09-27T03:23:58Z,42.805,6.029,13.3031,4.60013,2469.9,2019-9-27T05:24:22Z
2019-09-27T03:27:01Z,42.805,6.029,13.3026,4.60059,2469.9,2019-9-27T05:27:25Z
2019-09-27T03:30:05Z,42.805,6.029,13.3015,4.60044,2469.914,2019-9-27T05:30:29Z
2019-09-27T03:33:08Z,42.805,6.029,13.3031,4.60049,2469.923,2019-9-27T05:33:32Z
2019-09-27T03:36:11Z,42.805,6.029,13.3032,4.60029,2469.9,2019-9-27T05:36:35Z
2019-09-27T03:39:14Z,42.805,6.029,13.3033,4.60029,2469.914,2019-9-27T05:39:38Z
2019-09-27T03:42:17Z,42.805,6.029,13.3017,4.60004,2469.923,2019-9-27T05:42:41Z
2019-09-27T03:45:21Z,42.805,6.029,13.3003,4.59983,2469.923,2019-9-27T05:45:45Z
2019-09-27T03:48:24Z,42.805,6.029,13.3005,4.60011,2469.9,2019-9-27T05:48:48Z
2019-09-27T03:51:27Z,42.805,6.029,13.3011,4.60005,2469.96,2019-9-27T05:51:51Z
2019-09-27T03:54:30Z,42.805,6.029,13.3005,4.60022,2469.914,2019-9-27T05:54:54Z
2019-09-27T03:57:34Z,42.805,6.029,13.2980,4.60013,2469.937,2019-9-27T05:57:58Z
2019-09-27T04:00:37Z,42.805,6.029,13.2985,4.60058,2469.937,2019-9-27T06:01:01Z
2019-09-27T04:03:40Z,42.805,6.029,13.2988,4.60033,2469.9,2019-9-27T06:04:04Z
2019-09-27T04:06:43Z,42.805,6.029,13.3028,4.60020,2469.937,2019-9-27T06:07:07Z
2019-09-27T04:09:46Z,42.805,6.029,13.3015,4.59996,2469.96,2019-9-27T06:10:10Z
2019-09-27T04:12:49Z,42.805,6.029,13.3026,4.59986,2469.937,2019-9-27T06:13:13Z
2019-09-27T04:15:53Z,42.805,6.029,13.2996,4.60019,2469.914,2019-9-27T06:16:17Z
2019-09-27T04:18:56Z,42.805,6.029,13.3010,4.60006,2469.96,2019-9-27T06:19:20Z
2019-09-27T04:21:59Z,42.805,6.029,13.3011,4.60008,2469.96,2019-9-27T06:22:23Z
2019-09-27T04:25:02Z,42.805,6.029,13.3013,4.59987,2469.96,2019-9-27T06:25:26Z
2019-09-27T04:28:05Z,42.805,6.029,13.3003,4.60000,2469.937,2019-9-27T06:28:29Z
2019-09-27T04:31:09Z,42.805,6.029,13.2988,4.60003,2469.947,2019-9-27T06:31:33Z
2019-09-27T04:34:12Z,42.805,6.029,13.2985,4.59985,2469.96,2019-9-27T06:34:36Z
2019-09-27T04:37:15Z,42.805,6.029,13.2997,4.60014,2469.947,2019-9-27T06:37:39Z
2019-09-27T04:40:18Z,42.805,6.029,13.2987,4.60011,2469.947,2019-9-27T06:40:42Z
2019-09-27T04:43:21Z,42.805,6.029,13.2983,4.60004,2469.947,2019-9-27T06:43:45Z
2019-09-27T04:46:25Z,42.805,6.029,13.2998,4.60001,2469.923,2019-9-27T06:46:49Z
2019-09-27T04:49:28Z,42.805,6.029,13.2986,4.59992,2469.96,2019-9-27T06:49:52Z
2019-09-27T04:52:31Z,42.805,6.029,13.2997,4.59972,2469.947,2019-9-27T06:52:55Z
2019-09-27T04:55:34Z,42.805,6.029,13.2992,4.59983,2469.984,2019-9-27T06:55:58Z
2019-09-27T04:58:38Z,42.805,6.029,13.2996,4.59994,2469.96,2019-9-27T06:59:02Z
2019-09-27T05:01:41Z,42.805,6.029,13.2974,4.59991,2469.984,2019-9-27T07:02:05Z
2019-09-27T05:04:44Z,42.805,6.029,13.2980,4.60004,2469.96,2019-9-27T07:05:08Z
2019-09-27T05:07:47Z,42.805,6.029,13.2971,4.60009,2470.007,2019-9-27T07:08:11Z
2019-09-27T05:10:50Z,42.805,6.029,13.2993,4.59986,2469.984,2019-9-27T07:11:14Z
2019-09-27T05:13:54Z,42.805,6.029,13.2994,4.60013,2470.007,2019-9-27T07:14:18Z
2019-09-27T05:16:57Z,42.805,6.029,13.2982,4.59980,2469.97,2019-9-27T07:17:21Z
2019-09-27T05:20:00Z,42.805,6.029,13.2976,4.59980,2469.97,2019-9-27T07:20:24Z
2019-09-27T05:23:03Z,42.805,6.029,13.2979,4.59976,2469.97,2019-9-27T07:23:27Z
2019-09-27T05:26:06Z,42.805,6.029,13.2995,4.59982,2469.984,2019-9-27T07:26:30Z
2019-09-27T05:29:10Z,42.805,6.029,13.2991,4.59986,2469.97,2019-9-27T07:29:34Z
2019-09-27T05:32:13Z,42.805,6.029,13.2990,4.59990,2470.007,2019-9-27T07:32:37Z
2019-09-27T05:35:16Z,42.805,6.029,13.2987,4.59990,2470.007,2019-9-27T07:35:40Z
2019-09-27T05:38:19Z,42.805,6.029,13.2994,4.59986,2469.993,2019-9-27T07:38:43Z
2019-09-27T05:41:23Z,42.805,6.029,13.2991,4.59985,2470.007,2019-9-27T07:41:47Z
2019-09-27T05:44:26Z,42.805,6.029,13.2975,4.59989,2469.984,2019-9-27T07:44:50Z
2019-09-27T05:47:29Z,42.805,6.029,13.2991,4.59987,2469.984,2019-9-27T07:47:53Z
2019-09-27T05:50:32Z,42.805,6.029,13.2981,4.59986,2469.984,2019-9-27T07:50:56Z
2019-09-27T05:53:35Z,42.805,6.029,13.3000,4.59975,2469.993,2019-9-27T07:53:59Z
2019-09-27T05:56:38Z,42.805,6.029,13.2993,4.59978,2469.993,2019-9-27T07:57:02Z
2019-09-27T05:59:42Z,42.805,6.029,13.2993,4.59981,2470.007,2019-9-27T08:00:06Z
2019-09-27T06:02:45Z,42.805,6.029,13.3001,4.59986,2469.984,2019-9-27T08:03:09Z
2019-09-27T06:05:48Z,42.805,6.029,13.2992,4.59985,2470.03,2019-9-27T08:06:12Z
2019-09-27T06:08:51Z,42.805,6.029,13.2988,4.59995,2469.97,2019-9-27T08:09:15Z
2019-09-27T06:11:54Z,42.805,6.029,13.2994,4.59983,2469.993,2019-9-27T08:12:18Z
2019-09-27T06:14:58Z,42.805,6.029,13.3002,4.59984,2469.984,2019-9-27T08:15:22Z
2019-09-27T06:18:01Z,42.805,6.029,13.2989,4.59991,2469.993,2019-9-27T08:18:25Z
2019-09-27T06:21:04Z,42.805,6.029,13.2985,4.60003,2470.007,2019-9-27T08:21:28Z
2019-09-27T06:24:07Z,42.805,6.029,13.2983,4.59980,2470.007,2019-9-27T08:24:31Z
2019-09-27T06:27:11Z,42.805,6.029,13.2996,4.59983,2469.947,2019-9-27T08:27:34Z
2019-09-27T06:30:14Z,42.805,6.029,13.2986,4.59982,2470.017,2019-9-27T08:30:38Z
2019-09-27T06:33:17Z,42.805,6.029,13.2991,4.59995,2470.007,2019-9-27T08:33:41Z
2019-09-27T06:36:20Z,42.805,6.029,13.2994,4.59990,2469.97,2019-9-27T08:36:44Z
2019-09-27T06:39:23Z,42.805,6.029,13.2995,4.59989,2469.947,2019-9-27T08:39:47Z
2019-09-27T06:42:27Z,42.805,6.029,13.2994,4.59983,2469.947,2019-9-27T08:42:50Z
2019-09-27T06:45:30Z,42.805,6.029,13.2979,4.59981,2469.96,2019-9-27T08:45:54Z
2019-09-27T06:48:33Z,42.805,6.029,13.2982,4.59982,2469.984,2019-9-27T08:48:57Z
2019-09-27T06:51:36Z,42.805,6.029,13.2990,4.59982,2469.97,2019-9-27T08:52:00Z
2019-09-27T06:54:39Z,42.805,6.029,13.2993,4.59986,2469.993,2019-9-27T08:55:03Z
2019-09-27T06:57:42Z,42.805,6.029,13.2991,4.59983,2469.993,2019-9-27T08:58:06Z
2019-09-27T07:00:46Z,42.805,6.029,13.2990,4.59986,2469.984,2019-9-27T09:01:10Z
2019-09-27T07:03:49Z,42.805,6.029,13.2991,4.59987,2469.984,2019-9-27T09:04:13Z
2019-09-27T07:06:52Z,42.805,6.029,13.2991,4.59982,2469.97,2019-9-27T09:07:16Z
2019-09-27T07:09:55Z,42.805,6.029,13.2988,4.59990,2470.007,2019-9-27T09:10:19Z
2019-09-27T07:12:58Z,42.805,6.029,13.3009,4.59982,2469.97,2019-9-27T09:13:22Z
2019-09-27T07:16:02Z,42.805,6.029,13.2990,4.59976,2469.984,2019-9-27T09:16:26Z
2019-09-27T07:19:05Z,42.805,6.029,13.2990,4.59979,2469.97,2019-9-27T09:19:29Z
2019-09-27T07:22:08Z,42.805,6.029,13.2984,4.59988,2470.007,2019-9-27T09:22:32Z
2019-09-27T07:25:11Z,42.805,6.029,13.2993,4.59983,2469.947,2019-9-27T09:25:35Z
2019-09-27T07:28:14Z,42.805,6.029,13.2983,4.59981,2469.984,2019-9-27T09:28:38Z
2019-09-27T07:31:18Z,42.805,6.029,13.2986,4.59978,2469.97,2019-9-27T09:31:42Z
2019-09-27T07:34:21Z,42.805,6.029,13.2993,4.59980,2469.96,2019-9-27T09:34:45Z
2019-09-27T07:37:24Z,42.805,6.029,13.2990,4.59985,2469.97,2019-9-27T09:37:48Z
2019-09-27T07:40:27Z,42.805,6.029,13.2987,4.59986,2469.97,2019-9-27T09:40:51Z
2019-09-27T07:43:30Z,42.805,6.029,13.2997,4.59993,2469.947,2019-9-27T09:43:54Z
2019-09-27T07:46:34Z,42.805,6.029,13.2990,4.59994,2469.97,2019-9-27T09:46:58Z
2019-09-27T07:49:37Z,42.805,6.029,13.2990,4.59983,2469.97,2019-9-27T09:50:01Z
2019-09-27T07:52:40Z,42.805,6.029,13.2990,4.59986,2469.947,2019-9-27T09:53:04Z
2019-09-27T07:55:43Z,42.805,6.029,13.2998,4.59981,2469.947,2019-9-27T09:56:07Z
2019-09-27T07:58:46Z,42.805,6.029,13.2998,4.59994,2469.947,2019-9-27T09:59:10Z
2019-09-27T08:01:50Z,42.805,6.029,13.2987,4.59993,2469.937,2019-9-27T10:02:14Z
2019-09-27T08:04:53Z,42.805,6.029,13.2989,4.59987,2469.947,2019-9-27T10:05:17Z
2019-09-27T08:07:56Z,42.805,6.029,13.2986,4.59984,2469.96,2019-9-27T10:08:20Z
2019-09-27T08:10:59Z,42.805,6.029,13.2996,4.59983,2469.97,2019-9-27T10:11:23Z
2019-09-27T08:14:03Z,42.805,6.029,13.3007,4.59981,2469.97,2019-9-27T10:14:27Z
2019-09-27T08:17:06Z,42.805,6.029,13.2985,4.59996,2469.937,2019-9-27T10:17:30Z
2019-09-27T08:20:09Z,42.805,6.029,13.2989,4.59978,2469.937,2019-9-27T10:20:33Z
2019-09-27T08:23:12Z,42.805,6.029,13.2986,4.59986,2469.923,2019-9-27T10:23:36Z
2019-09-27T08:26:15Z,42.805,6.029,13.2988,4.59978,2469.923,2019-9-27T10:26:39Z
2019-09-27T08:29:18Z,42.805,6.029,13.2982,4.59977,2469.937,2019-9-27T10:29:42Z
2019-09-27T08:32:22Z,42.805,6.029,13.2985,4.59984,2469.923,2019-9-27T10:32:46Z
2019-09-27T08:35:25Z,42.805,6.029,13.2984,4.59982,2469.914,2019-9-27T10:35:49Z
2019-09-27T08:38:28Z,42.805,6.029,13.2983,4.59989,2469.923,2019-9-27T10:38:52Z
2019-09-27T08:41:31Z,42.805,6.029,13.2991,4.59993,2469.947,2019-9-27T10:41:55Z
2019-09-27T08:44:34Z,42.805,6.029,13.2984,4.60009,2469.96,2019-9-27T10:44:58Z
2019-09-27T08:47:38Z,42.805,6.029,13.2983,4.59982,2469.9,2019-9-27T10:48:02Z
2019-09-27T08:50:41Z,42.805,6.029,13.2982,4.59981,2469.947,2019-9-27T10:51:05Z
2019-09-27T08:53:44Z,42.805,6.029,13.2990,4.59984,2469.947,2019-9-27T10:54:08Z
2019-09-27T08:56:47Z,42.805,6.029,13.2982,4.60007,2469.937,2019-9-27T10:57:11Z
2019-09-27T08:59:51Z,42.805,6.029,13.2996,4.59979,2469.914,2019-9-27T11:00:15Z
2019-09-27T09:02:54Z,42.805,6.029,13.2975,4.59988,2469.923,2019-9-27T11:03:18Z
2019-09-27T09:05:57Z,42.805,6.029,13.3000,4.59978,2469.937,2019-9-27T11:06:21Z
2019-09-27T09:09:00Z,42.805,6.029,13.2994,4.59985,2469.914,2019-9-27T11:09:24Z
2019-09-27T09:12:03Z,42.805,6.029,13.2996,4.59978,2469.914,2019-9-27T11:12:27Z
2019-09-27T09:15:07Z,42.805,6.029,13.2987,4.59989,2469.937,2019-9-27T11:15:31Z
2019-09-27T09:18:10Z,42.805,6.029,13.2986,4.59981,2469.914,2019-9-27T11:18:34Z
2019-09-27T09:21:13Z,42.805,6.029,13.2979,4.60015,2469.914,2019-9-27T11:21:37Z
2019-09-27T09:24:16Z,42.805,6.029,13.2986,4.59982,2469.876,2019-9-27T11:24:40Z
2019-09-27T09:27:19Z,42.805,6.029,13.2986,4.59991,2469.876,2019-9-27T11:27:43Z
2019-09-27T09:30:22Z,42.805,6.029,13.2988,4.59976,2469.89,2019-9-27T11:30:46Z
2019-09-27T09:33:26Z,42.805,6.029,13.2986,4.59990,2469.9,2019-9-27T11:33:50Z
2019-09-27T09:36:29Z,42.805,6.029,13.2983,4.59982,2469.9,2019-9-27T11:36:53Z
2019-09-27T09:39:32Z,42.805,6.029,13.2992,4.59982,2469.876,2019-9-27T11:39:56Z
2019-09-27T09:42:35Z,42.805,6.029,13.2992,4.59991,2469.89,2019-9-27T11:42:59Z
2019-09-27T09:45:39Z,42.805,6.029,13.2979,4.59994,2469.876,2019-9-27T11:46:03Z
2019-09-27T09:48:42Z,42.805,6.029,13.2985,4.59981,2469.89,2019-9-27T11:49:06Z
2019-09-27T09:51:45Z,42.805,6.029,13.2992,4.59978,2469.89,2019-9-27T11:52:09Z
2019-09-27T09:54:48Z,42.805,6.029,13.3001,4.59993,2469.876,2019-9-27T11:55:12Z
2019-09-27T09:57:51Z,42.805,6.029,13.2991,4.59978,2469.914,2019-9-27T11:58:15Z
2019-09-27T10:00:54Z,42.805,6.029,13.2996,4.59991,2469.89,2019-9-27T12:01:18Z
2019-09-27T10:03:58Z,42.805,6.029,13.2984,4.59993,2469.853,2019-9-27T12:04:22Z
2019-09-27T10:07:01Z,42.805,6.029,13.2990,4.59988,2469.844,2019-9-27T12:07:25Z
2019-09-27T10:10:04Z,42.805,6.029,13.2996,4.59983,2469.853,2019-9-27T12:10:28Z
2019-09-27T10:13:07Z,42.805,6.029,13.3005,4.60022,2469.876,2019-9-27T12:13:31Z
2019-09-27T10:16:10Z,42.805,6.029,13.2986,4.59993,2469.876,2019-9-27T12:16:34Z
2019-09-27T10:19:14Z,42.805,6.029,13.2973,4.59997,2469.83,2019-9-27T12:19:38Z
2019-09-27T10:22:17Z,42.805,6.029,13.3013,4.60014,2469.83,2019-9-27T12:22:41Z
2019-09-27T10:25:20Z,42.805,6.029,13.2971,4.60026,2469.853,2019-9-27T12:25:44Z
2019-09-27T10:28:23Z,42.805,6.029,13.3003,4.60011,2469.853,2019-9-27T12:28:47Z
2019-09-27T10:31:26Z,42.805,6.029,13.2996,4.59987,2469.89,2019-9-27T12:31:50Z
2019-09-27T10:34:30Z,42.805,6.029,13.2990,4.59997,2469.867,2019-9-27T12:34:54Z
2019-09-27T10:37:33Z,42.805,6.029,13.3009,4.60006,2469.83,2019-9-27T12:37:57Z
2019-09-27T10:40:36Z,42.805,6.029,13.3000,4.59991,2469.844,2019-9-27T12:41:00Z
2019-09-27T10:43:39Z,42.805,6.029,13.2975,4.60004,2469.83,2019-9-27T12:44:03Z
2019-09-27T10:46:43Z,42.805,6.029,13.2977,4.59996,2469.867,2019-9-27T12:47:07Z
2019-09-27T10:49:46Z,42.805,6.029,13.2980,4.60010,2469.867,2019-9-27T12:50:10Z
2019-09-27T10:52:49Z,42.805,6.029,13.2983,4.60004,2469.83,2019-9-27T12:53:13Z
2019-09-27T10:55:53Z,42.805,6.029,13.2972,4.59992,2469.844,2019-9-27T12:56:17Z
2019-09-27T10:58:56Z,42.805,6.029,13.2968,4.59989,2469.853,2019-9-27T12:59:20Z
2019-09-27T11:01:59Z,42.805,6.029,13.2959,4.59981,2469.853,2019-9-27T13:02:23Z
2019-09-27T11:05:02Z,42.805,6.029,13.2961,4.59973,2469.806,2019-9-27T13:05:26Z
2019-09-27T11:08:05Z,42.805,6.029,13.2964,4.59971,2469.83,2019-9-27T13:08:29Z
2019-09-27T11:11:08Z,42.805,6.029,13.2967,4.60001,2469.83,2019-9-27T13:11:32Z
2019-09-27T11:14:12Z,42.805,6.029,13.2965,4.59976,2469.853,2019-9-27T13:14:36Z
2019-09-27T11:17:15Z,42.805,6.029,13.2965,4.59973,2469.844,2019-9-27T13:17:39Z
2019-09-27T11:20:18Z,42.805,6.029,13.2962,4.59967,2469.83,2019-9-27T13:20:42Z
2019-09-27T11:23:21Z,42.805,6.029,13.2961,4.59967,2469.83,2019-9-27T13:23:45Z
2019-09-27T11:26:25Z,42.805,6.029,13.2961,4.59969,2469.853,2019-9-27T13:26:49Z
2019-09-27T11:29:28Z,42.805,6.029,13.2961,4.59971,2469.83,2019-9-27T13:29:52Z
2019-09-27T11:32:31Z,42.805,6.029,13.2964,4.59966,2469.83,2019-9-27T13:32:55Z
2019-09-27T11:35:34Z,42.805,6.029,13.2961,4.59973,2469.844,2019-9-27T13:35:58Z
2019-09-27T11:38:37Z,42.805,6.029,13.2965,4.59971,2469.83,2019-9-27T13:39:01Z
2019-09-27T11:41:41Z,42.805,6.029,13.2962,4.59970,2469.806,2019-9-27T13:42:05Z
2019-09-27T11:44:44Z,42.805,6.029,13.2965,4.59971,2469.783,2019-9-27T13:45:08Z
2019-09-27T11:47:47Z,42.805,6.029,13.2964,4.59967,2469.83,2019-9-27T13:48:11Z
2019-09-27T11:50:50Z,42.805,6.029,13.2959,4.59966,2469.806,2019-9-27T13:51:14Z
2019-09-27T11:53:53Z,42.805,6.029,13.2964,4.59962,2469.83,2019-9-27T13:54:17Z
2019-09-27T11:56:57Z,42.805,6.029,13.2962,4.59965,2469.821,2019-9-27T13:57:21Z
2019-09-27T12:00:00Z,42.805,6.029,13.2961,4.59969,2469.844,2019-9-27T14:00:24Z
2019-09-27T12:03:03Z,42.805,6.029,13.2963,4.59967,2469.806,2019-9-27T14:03:27Z
2019-09-27T12:06:06Z,42.805,6.029,13.2961,4.59973,2469.821,2019-9-27T14:06:30Z
2019-09-27T12:09:09Z,42.805,6.029,13.2960,4.59970,2469.806,2019-9-27T14:09:33Z
2019-09-27T12:12:13Z,42.805,6.029,13.2965,4.59968,2469.821,2019-9-27T14:12:37Z
2019-09-27T12:15:16Z,42.805,6.029,13.2963,4.59964,2469.783,2019-9-27T14:15:40Z
2019-09-27T12:18:19Z,42.805,6.029,13.2967,4.59963,2469.806,2019-9-27T14:18:43Z
2019-09-27T12:21:22Z,42.805,6.029,13.2960,4.59966,2469.821,2019-9-27T14:21:46Z
2019-09-27T12:24:25Z,42.805,6.029,13.2961,4.59968,2469.83,2019-9-27T14:24:49Z
2019-09-27T12:27:29Z,42.805,6.029,13.2958,4.59964,2469.806,2019-9-27T14:27:53Z
2019-09-27T12:30:32Z,42.805,6.029,13.2963,4.59967,2469.844,2019-9-27T14:30:56Z
2019-09-27T12:33:35Z,42.805,6.029,13.2965,4.59969,2469.821,2019-9-27T14:33:59Z
2019-09-27T12:36:38Z,42.805,6.029,13.2961,4.59972,2469.83,2019-9-27T14:37:02Z
2019-09-27T12:39:41Z,42.805,6.029,13.2964,4.59971,2469.806,2019-9-27T14:40:05Z
2019-09-27T12:42:45Z,42.805,6.029,13.2957,4.59971,2469.844,2019-9-27T14:43:09Z
2019-09-27T12:45:48Z,42.805,6.029,13.2960,4.59964,2469.821,2019-9-27T14:46:12Z
2019-09-27T12:48:51Z,42.805,6.029,13.2961,4.59962,2469.806,2019-9-27T14:49:15Z
2019-09-27T12:51:54Z,42.805,6.029,13.2961,4.59964,2469.821,2019-9-27T14:52:18Z
2019-09-27T12:54:57Z,42.805,6.029,13.2963,4.59965,2469.844,2019-9-27T14:55:21Z
2019-09-27T12:58:01Z,42.805,6.029,13.2959,4.59966,2469.821,2019-9-27T14:58:25Z
2019-09-27T13:01:04Z,42.805,6.029,13.2962,4.59965,2469.806,2019-9-27T15:01:28Z
2019-09-27T13:04:07Z,42.805,6.029,13.2961,4.59968,2469.806,2019-9-27T15:04:31Z
2019-09-27T13:07:11Z,42.805,6.029,13.2967,4.59969,2469.806,2019-9-27T15:07:35Z
2019-09-27T13:10:14Z,42.805,6.029,13.2961,4.59967,2469.821,2019-9-27T15:10:38Z
2019-09-27T13:13:17Z,42.805,6.029,13.2964,4.59968,2469.806,2019-9-27T15:13:41Z
2019-09-27T13:16:20Z,42.805,6.029,13.2963,4.59966,2469.844,2019-9-27T15:16:44Z
2019-09-27T13:19:24Z,42.805,6.029,13.2961,4.59965,2469.806,2019-9-27T15:19:48Z
2019-09-27T13:22:27Z,42.805,6.029,13.2962,4.59964,2469.821,2019-9-27T15:22:51Z
2019-09-27T13:25:30Z,42.805,6.029,13.2960,4.59969,2469.83,2019-9-27T15:25:54Z
2019-09-27T13:28:33Z,42.805,6.029,13.2961,4.59971,2469.806,2019-9-27T15:28:57Z
2019-09-27T13:31:36Z,42.805,6.029,13.2961,4.59974,2469.821,2019-9-27T15:32:00Z
2019-09-27T13:34:40Z,42.805,6.029,13.2962,4.59970,2469.867,2019-9-27T15:35:04Z
2019-09-27T13:37:43Z,42.805,6.029,13.2962,4.59966,2469.806,2019-9-27T15:38:07Z
2019-09-27T13:40:46Z,42.805,6.029,13.2960,4.59968,2469.83,2019-9-27T15:41:10Z
2019-09-27T13:43:49Z,42.805,6.029,13.2963,4.59971,2469.853,2019-9-27T15:44:13Z
2019-09-27T13:46:52Z,42.805,6.029,13.2964,4.59982,2469.844,2019-9-27T15:47:16Z
2019-09-27T13:49:56Z,42.805,6.029,13.2961,4.59973,2469.853,2019-9-27T15:50:20Z
2019-09-27T13:52:59Z,42.805,6.029,13.2964,4.59973,2469.844,2019-9-27T15:53:23Z
2019-09-27T13:56:02Z,42.805,6.029,13.2964,4.59986,2469.867,2019-9-27T15:56:26Z
2019-09-27T13:59:05Z,42.805,6.029,13.2963,4.59973,2469.853,2019-9-27T15:59:29Z
2019-09-27T14:02:09Z,42.805,6.029,13.2964,4.59981,2469.876,2019-9-27T16:02:33Z
2019-09-27T14:05:12Z,42.805,6.029,13.2961,4.59971,2469.83,2019-9-27T16:05:36Z
2019-09-27T14:08:15Z,42.805,6.029,13.2958,4.59981,2469.914,2019-9-27T16:08:39Z
2019-09-27T14:11:18Z,42.805,6.029,13.2961,4.59980,2469.853,2019-9-27T16:11:42Z
2019-09-27T14:14:21Z,42.805,6.029,13.2963,4.59974,2469.867,2019-9-27T16:14:45Z
2019-09-27T14:17:25Z,42.805,6.029,13.2961,4.59986,2469.914,2019-9-27T16:17:49Z
2019-09-27T14:20:28Z,42.805,6.029,13.2966,4.59987,2469.876,2019-9-27T16:20:52Z
2019-09-27T14:23:31Z,42.805,6.029,13.2963,4.59973,2469.876,2019-9-27T16:23:55Z
2019-09-27T14:26:34Z,42.805,6.029,13.2962,4.59982,2469.9,2019-9-27T16:26:58Z
2019-09-27T14:29:37Z,42.805,6.029,13.2966,4.59999,2469.89,2019-9-27T16:30:01Z
2019-09-27T14:32:41Z,42.805,6.029,13.2964,4.59999,2469.89,2019-9-27T16:33:05Z
2019-09-27T14:35:44Z,42.805,6.029,13.2968,4.60015,2469.9,2019-9-27T16:36:08Z
2019-09-27T14:38:47Z,42.805,6.029,13.2963,4.60018,2469.9,2019-9-27T16:39:11Z
2019-09-27T14:41:50Z,42.805,6.029,13.2961,4.60016,2469.914,2019-9-27T16:42:14Z
2019-09-27T14:44:53Z,42.805,6.029,13.2967,4.60002,2469.876,2019-9-27T16:45:17Z
2019-09-27T14:47:57Z,42.805,6.029,13.2961,4.59995,2469.9,2019-9-27T16:48:21Z
2019-09-27T14:51:00Z,42.805,6.029,13.2963,4.60007,2469.876,2019-9-27T16:51:24Z
2019-09-27T14:54:03Z,42.805,6.029,13.2966,4.60019,2469.89,2019-9-27T16:54:27Z
2019-09-27T14:57:06Z,42.805,6.029,13.2962,4.60046,2469.937,2019-9-27T16:57:30Z
2019-09-27T15:00:10Z,42.805,6.029,13.2963,4.60074,2469.923,2019-9-27T17:00:34Z
2019-09-27T15:03:13Z,42.805,6.029,13.2963,4.60114,2469.923,2019-9-27T17:03:37Z
2019-09-27T15:06:16Z,42.805,6.029,13.2964,4.60085,2469.923,2019-9-27T17:06:40Z
2019-09-27T15:09:19Z,42.805,6.029,13.2968,4.60062,2469.923,2019-9-27T17:09:43Z
2019-09-27T15:12:22Z,42.805,6.029,13.2973,4.60026,2469.96,2019-9-27T17:12:46Z
2019-09-27T15:15:26Z,42.805,6.029,13.2986,4.60030,2469.96,2019-9-27T17:15:50Z